Weather History for Sioux City, IA

Change the Weather History Date:

Saturday, April 6, 2013

  Actual Average Record
Temperature  
Mean Temperature 54 °F 46 °F  
Max Temperature 70 °F 58 °F 91 °F (1991)
Min Temperature 37 °F 33 °F 12 °F (1982)
Degree Days  
Heating Degree Days 11 20  
Month to date heating degree days 136 124  
Since 1 July heating degree days 6332 6302  
Cooling Degree Days 0 0  
Month to date cooling degree days 0 0  
Year to date cooling degree days 0 0  
Growing Degree Days 7 (Base 50)    
Moisture  
Dew Point 38 °F    
Average Humidity 50    
Maximum Humidity 71    
Minimum Humidity 28    
Precipitation  
Precipitation T in 0.09 in 0.64 in (1919)
Month to date precipitation T 0.52  
Year to date precipitation 3.20 3.81  
Snow  
Snow 0.00 in 0.10 in 6.30 in (2003)
Month to date snowfall 0.0 0.6  
Since 1 July snowfall 32.5 33.6  
Snow Depth 0.00 in    
Sea Level Pressure  
Sea Level Pressure 29.64 in    
Wind  
Wind Speed 13 mph (NW)    
Max Wind Speed 30 mph    
Max Gust Speed 37 mph    
Visibility 10 miles    
Events Rain    
T = Trace of Precipitation, MM = Missing Value Source: NWS Daily Summary

Daily Weather History Graph

Daily Weather History Graph

Search for Another Location

Airport:

Trip Planner

Search our weather history database for the weather conditions in past years. The results will help you decide how hot, cold, wet, or windy it might be!

Date:

Astronomy

Apr. 06, 2013 Rise Set
Actual Time 6:58 AM CDT 7:57 PM CDT
Civil Twilight 6:30 AM CDT 8:26 PM CDT
Nautical Twilight 5:56 AM CDT 9:00 PM CDT
Astronomical Twilight 5:20 AM CDT 9:36 PM CDT
Moon 4:47 AM CDT (4/6) 4:23 PM CDT (4/6)
Length of Visible Light 13h 55m
Length of Day
12h 58m
Waning Crescent, 15% of the Moon is Illuminated
Apr 6
Waning Crescent
Apr 10
New
Apr 18
First Quarter
Apr 25
Full
May 2
Last Quarter

Hourly Weather History & Observations

Time (CDT) Temp. Windchill Dew Point Humidity Pressure Visibility Wind Dir Wind Speed Gust Speed Precip Events Conditions
12:52 AM 57.9 °F - 37.0 °F 46% 29.66 in 10.0 mi South 17.3 mph - N/A   Clear
1:52 AM 57.9 °F - 37.0 °F 46% 29.65 in 10.0 mi South 16.1 mph 28.8 mph N/A   Mostly Cloudy
2:52 AM 54.0 °F - 37.9 °F 55% 29.62 in 10.0 mi SE 10.4 mph - N/A   Scattered Clouds
3:52 AM 55.9 °F - 39.0 °F 53% 29.59 in 10.0 mi SE 12.7 mph - N/A   Overcast
4:52 AM 55.9 °F - 39.9 °F 55% 29.58 in 10.0 mi SSE 10.4 mph - N/A   Mostly Cloudy
5:52 AM 54.0 °F - 41.0 °F 62% 29.58 in 10.0 mi South 16.1 mph - N/A   Clear
6:52 AM 51.1 °F - 41.0 °F 68% 29.57 in 10.0 mi SSW 10.4 mph - N/A   Clear
7:52 AM 51.1 °F - 42.1 °F 71% 29.57 in 10.0 mi SW 12.7 mph - N/A   Clear
8:52 AM 51.1 °F - 36.0 °F 56% 29.59 in 10.0 mi WNW 12.7 mph - N/A   Clear
9:52 AM 48.0 °F - 35.1 °F 61% 29.61 in 10.0 mi WNW 15.0 mph - N/A   Mostly Cloudy
10:52 AM 46.9 °F - 36.0 °F 66% 29.61 in 10.0 mi NW 13.8 mph - 0.00 in Rain Light Rain
11:52 AM 44.1 °F 35.9 °F 37.9 °F 79% 29.63 in 10.0 mi NW 19.6 mph - 0.00 in   Overcast
12:52 PM 55.0 °F - 41.0 °F 59% 29.62 in 10.0 mi NNW 17.3 mph 26.5 mph N/A   Partly Cloudy
1:52 PM 60.1 °F - 39.0 °F 46% 29.61 in 10.0 mi NW 19.6 mph 28.8 mph N/A   Clear
2:52 PM 64.0 °F - 39.0 °F 40% 29.60 in 10.0 mi NW 19.6 mph 29.9 mph N/A   Scattered Clouds
3:52 PM 66.9 °F - 36.0 °F 32% 29.61 in 10.0 mi NW 21.9 mph 34.5 mph N/A   Scattered Clouds
4:52 PM 69.1 °F - 36.0 °F 30% 29.62 in 10.0 mi NNW 26.5 mph 33.4 mph N/A   Clear
5:52 PM 69.1 °F - 36.0 °F 30% 29.65 in 10.0 mi NNW 13.8 mph 24.2 mph N/A   Clear
6:52 PM 66.0 °F - 36.0 °F 33% 29.68 in 10.0 mi NNW 12.7 mph - N/A   Overcast
7:52 PM 62.1 °F - 36.0 °F 38% 29.71 in 10.0 mi NW 10.4 mph - 0.00 in   Mostly Cloudy
8:52 PM 55.0 °F - 36.0 °F 49% 29.74 in 10.0 mi Calm Calm - N/A   Clear
9:52 PM 54.0 °F - 36.0 °F 51% 29.77 in 10.0 mi North 6.9 mph - N/A   Clear
10:52 PM 52.0 °F - 37.0 °F 57% 29.79 in 10.0 mi ENE 5.8 mph - N/A   Clear
11:52 PM 46.9 °F - 36.0 °F 66% 29.81 in 10.0 mi North 4.6 mph - N/A   Clear